RH
38 36 39 42 45 53 54 40 58 50 61 44 62 71 69 74 79 81 82 80 81 87 86 80 74 70 63 57 50 42 33 29 30 27 24 20 18 18 18 17 20 22 20 18
34 31 44 37 40 48 46 39 50 45 58 44 49 64 74 75 78 80 81 81 81 80 77 71 64 59 49 39 32 24 25 27 24 21 20 20 21 21 18 18 19 20 21 24
55 37 40 44 37 48 49 47 38 47 30 41 62 57 68 77 74 79 81 81 79 71 65 58 51 45 42 37 31 27 27 26 24 22 22 24 24 24 25 26 26 26 27 27
65 46 62 28 32 28 34 36 38 30 28 38 53 57 64 66 72 80 79 76 67 58 52 45 42 39 37 32 28 26 28 29 30 30 30 30 29 31 33 34 35 36 36 35
66 70 45 34 39 41 40 35 34 29 61 80 81 78 82 73 70 73 71 64 57 49 42 37 32 31 28 29 30 33 35 36 36 36 36 36 36 37 38 39 39 39 39 40
71 65 65 31 30 32 27 39 33 32 71 77 68 72 83 84 76 71 62 56 50 42 40 36 34 30 33 36 38 41 40 41 40 39 40 42 43 44 44 44 45 45 46 45
46 60 54 38 39 32 37 32 46 42 64 66 58 61 82 71 66 57 52 48 41 40 40 41 41 38 38 39 39 40 40 41 42 44 46 48 48 48 49 49 49 50 51 50
62 64 64 92 45 38 55 70 66 61 65 77 74 71 67 59 55 51 50 49 43 46 47 46 41 38 42 40 41 41 43 45 46 49 51 53 54 54 54 56 57 56 57 57
55 57 96 91 91 90 87 78 79 74 69 65 65 62 58 56 54 54 52 52 47 48 49 46 41 38 40 44 44 45 47 49 52 54 56 59 60 60 61 62 62 62 63 66
86 98 99 98 95 89 77 80 67 61 59 56 59 56 56 55 57 57 52 50 44 43 46 46 43 44 47 49 50 51 52 54 56 58 60 61 63 66 67 67 68 68 72 74
100 100 100 98 93 82 77 65 55 51 51 52 54 55 55 56 54 53 54 49 45 46 47 50 50 50 51 52 52 54 56 57 59 62 66 69 70 70 71 72 73 73 73 75
96 97 96 99 99 90 90 90 85 86 88 77 73 80 79 80 67 59 55 51 50 51 53 55 53 54 54 55 58 59 60 62 66 72 73 68 71 73 72 78 80 79 80 78
96 97 96 97 97 96 95 96 91 92 89 94 95 91 82 77 64 61 53 54 55 56 56 57 58 59 61 62 64 64 66 68 73 73 68 70 77 82 89 76 72 84 83 83
96 95 93 94 96 96 94 96 95 96 93 79 69 64 64 61 59 59 59 58 57 58 60 62 63 64 65 65 66 70 72 74 75 68 70 78 82 84 84 89 92 89 76 86
95 95 96 95 93 95 95 91 82 76 70 64 62 63 63 63 63 63 61 60 61 62 65 65 66 65 62 64 69 77 80 75 72 78 83 84 80 81 84 88 93 93 90 88
94 94 93 93 94 92 81 70 70 67 62 63 64 65 65 64 64 65 64 64 65 68 66 65 63 61 64 73 77 74 71 79 87 86 85 80 82 89 94 97 99 96 94 90
87 90 88 90 88 85 79 69 65 64 65 66 68 67 67 67 66 66 65 66 65 64 64 63 63 66 69 74 74 70 74 82 89 84 83 89 94 95 100 96 94 92 91 86
84 84 76 69 70 69 68 68 68 68 69 70 69 69 70 72 74 71 69 68 68 67 66 66 67 71 78 74 72 82 85 90 88 91 94 94 90 93 89 89 94 96 92 90
69 69 67 67 72 73 73 75 76 75 75 74 73 75 74 74 74 74 73 74 73 75 69 71 72 78 80 73 86 89 92 92 96 89 91 90 92 87 89 91 93 93 93 95
73 72 71 72 73 77 79 80 79 79 81 81 80 80 81 80 81 81 80 82 78 76 77 78 88 88 76 78 79 90 94 98 92 86 87 89 86 88 86 92 96 93 94 94
80 78 80 81 82 84 84 89 91 90 86 84 85 87 89 87 86 86 87 90 76 78 84 86 83 85 82 78 82 96 98 92 91 89 87 83 82 83 94 94 96 98 99 100
90 93 92 93 95 93 91 88 86 87 84 83 85 90 93 91 87 88 86 90 79 86 89 88 93 86 94 96 98 98 89 92 96 82 82 82 86 97 97 98 100 100 99 99
94 94 92 94 99 97 86 85 83 78 80 86 89 87 87 86 84 97 97 76 91 90 97 96 96 94 92 97 93 85 94 94 88 90 84 92 98 99 100 100 100 100 100 99
93 92 95 93 87 89 95 86 82 83 87 84 82 80 81 84 85 80 82 91 94 97 98 96 94 98 98 91 88 92 93 96 94 93 96 99 99 100 98 96 99 97 97 98
93 93 95 92 95 93 93 90 90 90 91 86 85 82 80 82 91 89 93 96 97 97 95 98 96 98 95 94 94 95 96 96 95 99 98 97 99 99 97 99 98 98 98 97
94 98 99 86 91 94 96 96 100 96 94 95 94 86 85 90 93 97 95 98 98 98 96 95 95 99 98 96 98 96 96 96 98 96 94 96 96 98 98 97 99 97 96 96
93 86 96 92 91 96 98 96 97 97 99 100 100 90 98 98 98 96 98 95 95 95 96 96 96 96 97 99 97 96 96 97 99 97 100 100 99 98 98 97 97 100 100 94
Wind_Speed
6 5 6 7 7 15 11 15 8 8 9 7 13 16 17 14 13 14 12 12 10 9 10 17 20 21 21 21 21 22 23 23 21 19 17 16 15 14 12 12 11 11 10 11
5 8 9 5 7 12 18 12 5 5 8 4 5 9 12 17 17 16 14 13 11 11 14 14 19 21 21 21 20 21 21 20 17 15 14 13 11 11 10 10 11 11 13 13
5 3 5 7 15 11 7 7 15 13 22 7 5 15 18 17 17 18 15 14 13 11 14 19 21 21 21 20 18 18 17 15 13 11 11 10 9 10 11 12 12 13 14 15
3 3 5 7 3 13 18 7 11 3 6 7 8 7 10 13 16 16 15 14 11 15 20 22 20 19 19 18 17 15 13 11 10 9 9 9 10 11 11 12 14 15 16 16
5 6 4 5 5 8 9 11 14 17 6 5 8 6 5 6 11 14 14 16 18 24 24 21 20 18 17 15 13 12 10 8 8 8 8 9 11 12 12 13 15 16 16 17
3 5 9 8 5 6 5 4 7 13 11 14 8 6 5 9 13 13 19 21 23 26 23 20 17 16 15 13 11 8 6 5 5 6 7 9 10 12 14 14 16 16 18 18
12 7 6 3 2 3 6 5 1 9 15 17 8 1 10 14 12 20 22 24 27 25 22 18 15 14 13 10 7 5 3 3 4 6 8 9 11 13 14 15 16 17 19 20
4 5 11 2 1 7 0 3 1 6 5 9 11 15 17 16 15 16 20 21 24 22 19 15 13 12 10 7 4 2 2 4 6 7 9 10 12 13 15 15 18 19 19 21
7 4 2 3 4 5 4 2 3 6 12 17 16 16 17 15 15 14 19 19 22 20 17 13 11 9 8 5 2 2 4 6 7 8 10 11 12 14 16 15 17 20 19 18
4 2 3 5 8 7 8 9 10 12 13 15 19 16 16 14 13 13 17 17 20 19 16 13 9 8 6 3 2 3 5 6 7 9 11 12 13 13 14 16 16 17 17 16
3 3 6 9 8 8 13 14 16 15 15 16 17 15 14 13 12 16 16 17 16 14 12 10 7 5 3 2 3 4 5 8 9 9 11 11 12 13 13 14 14 17 20 20
3 7 6 6 7 8 16 14 13 18 18 16 18 16 15 12 16 16 14 14 12 11 10 6 3 2 2 3 3 5 6 7 6 8 9 11 13 14 12 13 14 16 17 18
3 10 13 16 16 14 19 18 16 17 15 17 19 20 19 14 12 13 13 11 9 7 5 3 2 2 2 3 4 5 5 6 8 10 13 15 15 15 16 19 18 15 16 17
12 6 19 15 10 14 17 20 25 21 21 21 18 17 16 13 13 12 9 6 4 4 4 3 2 3 4 6 6 5 5 6 9 13 15 15 15 15 17 17 15 21 20 18
16 16 13 12 17 15 19 17 15 12 12 15 16 13 12 9 8 7 5 5 5 5 4 3 4 5 6 6 5 4 7 11 12 12 11 13 15 16 16 16 16 18 21 20
12 14 14 15 14 13 14 12 11 9 8 10 11 9 7 7 7 7 6 5 4 4 4 5 6 8 6 3 5 9 11 10 10 11 13 16 15 15 14 14 16 15 15 18
12 14 13 13 11 12 11 9 9 8 9 10 9 7 7 6 6 6 6 5 5 5 7 8 8 4 6 6 10 12 11 11 10 14 14 15 13 14 14 15 16 17 19 19
12 11 12 11 9 8 8 11 10 10 9 8 7 7 7 7 5 6 6 7 7 8 9 7 7 6 7 10 11 9 10 11 12 14 12 12 14 13 13 15 16 18 19 20
14 12 13 12 12 10 9 9 9 9 8 8 7 7 6 5 6 7 8 8 9 10 9 8 7 8 9 10 10 10 10 11 13 9 11 11 11 13 13 15 16 17 18 19
14 14 13 11 11 11 9 9 9 8 7 7 7 7 7 7 7 8 9 9 9 9 9 9 8 8 11 13 9 8 11 12 8 10 10 10 13 13 15 15 16 17 18 18
13 12 11 10 9 10 9 9 8 8 8 7 8 8 7 8 8 8 9 10 10 8 9 9 10 12 13 10 10 14 7 8 8 9 10 11 12 13 17 18 18 18 18 18
10 9 10 11 11 12 12 10 10 10 10 10 10 9 9 10 10 10 10 11 11 9 10 12 13 12 12 13 11 9 7 7 6 8 8 8 12 16 17 17 18 19 19 17
13 13 12 12 12 11 11 12 13 13 13 13 13 13 12 12 12 11 9 11 12 13 14 13 11 11 11 8 4 6 5 4 5 6 6 11 13 14 14 16 16 18 17 16
14 14 13 14 13 11 12 16 15 15 13 14 13 12 13 13 14 12 12 13 12 12 13 10 11 10 7 7 6 4 4 4 5 6 9 10 11 11 12 16 17 16 15 14
15 14 12 13 11 9 12 15 16 14 15 14 14 14 11 11 13 16 13 14 13 11 12 9 9 8 5 6 4 4 5 5 5 8 8 9 10 11 14 13 13 15 13 8
16 12 11 14 12 14 15 17 12 14 14 14 16 15 16 16 15 13 13 11 11 10 10 8 6 5 5 4 3 5 4 4 4 4 7 8 10 11 10 13 13 8 6 7
13 14 12 15 14 16 16 16 15 16 17 15 17 21 17 17 14 11 9 10 9 8 7 5 4 3 2 3 3 3 3 3 4 4 6 8 8 8 10 10 6 8 8 6
Wind_Direction
239 230 187 201 191 185 195 216 186 222 212 230 194 180 170 150 146 147 146 145 142 136 131 128 125 123 120 117 115 113 107 100 95 94 91 86 78 69 61 51 41 30 17 10
262 220 203 227 211 198 215 223 262 259 253 229 146 131 161 167 160 159 158 153 147 143 142 139 137 133 127 122 117 114 106 100 98 91 83 72 63 51 39 27 17 7 2 354
254 190 146 277 216 191 185 197 212 212 239 150 158 180 178 170 169 166 160 155 152 149 145 146 144 140 133 128 123 115 108 102 93 84 72 58 45 33 22 13 3 358 353 348
206 125 209 247 198 206 206 198 212 211 182 178 184 169 162 178 163 155 153 150 146 144 147 149 147 142 138 134 127 118 107 97 83 66 51 37 26 16 6 357 351 345 341 338
177 208 293 276 198 160 167 242 205 214 141 122 124 85 24 146 154 155 150 147 148 151 150 147 146 144 140 136 127 113 99 86 63 43 28 14 5 358 353 345 338 336 334 331
144 208 215 227 194 156 130 269 205 184 162 153 154 159 202 157 133 130 136 141 142 150 146 144 143 146 137 132 132 113 97 76 44 22 10 0 351 346 339 336 331 331 327 330
219 236 280 283 323 152 157 241 183 175 163 165 178 251 131 127 123 130 134 135 145 147 144 141 141 142 127 125 115 108 93 45 16 3 355 351 341 338 336 333 330 331 328 327
210 218 253 36 301 180 300 10 30 115 131 98 105 112 119 122 123 125 128 132 141 138 139 137 134 132 122 113 113 99 23 358 354 347 342 338 337 338 336 336 330 327 327 326
193 202 52 18 13 321 262 86 47 95 115 121 116 116 118 121 120 122 124 127 136 133 129 126 127 124 116 106 83 10 346 339 335 336 337 340 338 335 332 333 329 324 322 322
142 95 55 39 44 36 51 87 86 97 109 115 117 117 115 113 116 113 115 117 128 127 119 105 105 106 100 84 23 334 328 328 332 332 333 331 332 334 327 322 319 316 313 307
72 88 85 38 53 71 72 77 85 83 95 104 109 108 110 108 105 103 103 109 115 115 120 119 114 96 72 11 330 327 331 331 331 329 324 324 323 321 314 310 306 310 311 312
3 320 65 64 55 79 84 78 82 93 86 81 90 92 91 84 91 99 98 113 115 120 123 117 102 63 10 347 344 340 317 302 307 313 317 319 317 319 322 315 310 308 307 308
62 46 71 77 61 63 82 77 69 76 77 83 78 85 91 102 112 117 113 118 117 115 110 101 64 37 40 352 319 301 292 306 317 321 325 323 320 319 317 327 325 315 313 316
32 57 51 35 75 60 61 69 70 66 73 78 85 87 94 93 95 92 94 103 110 108 95 72 55 360 340 322 312 303 297 311 319 322 319 313 312 315 317 313 304 314 327 321
40 46 61 59 57 56 60 63 67 67 72 73 73 69 71 78 80 84 82 84 93 82 59 28 349 331 328 318 316 316 317 318 319 313 309 308 312 315 315 314 307 307 314 318
43 46 45 51 52 50 57 58 67 68 71 73 72 62 64 78 82 81 64 59 65 35 6 341 326 329 324 318 318 317 317 313 308 307 311 315 319 319 314 309 308 304 304 306
43 38 37 45 47 51 53 55 56 58 64 64 60 53 58 55 59 46 35 31 9 342 338 331 324 332 327 315 316 314 310 309 306 310 315 319 318 313 310 310 305 302 305 315
46 48 48 43 40 38 39 42 43 43 40 39 38 41 37 32 23 17 4 348 332 323 331 332 325 317 309 314 312 307 303 305 313 317 318 315 313 314 314 315 314 312 315 319
37 39 38 41 34 33 33 26 24 23 23 18 18 20 20 13 3 349 337 335 324 318 325 324 315 299 299 311 303 298 299 306 315 315 313 312 319 323 321 320 317 315 317 318
30 29 30 28 27 24 20 10 3 3 7 13 10 5 355 346 338 329 324 310 304 302 309 314 305 300 306 310 300 293 295 306 302 309 314 319 324 322 323 321 319 320 322 324
19 12 15 12 10 7 5 2 2 5 0 356 348 338 329 327 330 330 323 316 324 324 315 306 302 306 306 303 296 304 299 295 295 308 318 322 321 324 327 331 330 330 324 317
360 356 356 1 359 354 7 11 9 4 354 349 346 341 333 327 328 324 315 297 315 317 306 304 310 307 300 296 296 297 294 290 298 307 310 314 317 322 327 333 332 332 330 327
356 354 355 358 352 350 1 5 356 352 347 346 341 335 331 324 320 310 305 322 315 313 304 308 305 299 299 293 306 307 293 294 306 303 305 310 319 327 332 330 326 331 335 337
354 354 357 360 360 2 353 348 346 344 341 337 333 329 323 319 318 312 306 300 304 300 304 307 299 306 309 317 310 299 295 297 296 293 307 322 329 333 331 330 335 340 340 335
357 356 360 358 356 345 338 337 338 340 333 331 327 327 324 319 304 311 312 311 305 301 305 307 303 305 303 307 306 302 313 315 316 321 325 332 326 324 329 340 336 336 335 354
352 343 352 355 346 337 330 328 313 323 328 319 316 325 325 324 319 305 307 304 302 303 301 309 309 312 305 312 316 318 326 337 338 339 329 326 324 334 338 337 337 347 14 2
351 355 352 348 342 336 334 333 332 318 317 309 299 311 313 314 314 304 304 306 311 309 311 315 306 290 301 319 319 327 338 338 336 336 335 328 334 340 338 343 4 348 342 341